CSN6820 ZJHK-ZSAM

Flight info

Callsign CSN6820
Flight time 1h 17m
Altitude 41100
Route SAMAS9XD SAMAS G221 BIGRO R200 BEBEM A470 TEBON TEBON8X
Aircraft A359/H-SDE2E3FGILRWXY/LB2

Departure

Time 2026-04-25 03:17
Airport Haikou Meilan International Airport (ZJHK)

Arrival

Time 2026-04-25 04:35
Airport Xiamen Gaoqi International Airport (ZSAM)
Time Latitude Longitude Altitude Speed Heading
2026-04-25 02:50 19.94918 110.45534 63 ft 0 kts 230°
2026-04-25 03:06 19.94927 110.45545 54 ft 3 kts 237°
2026-04-25 03:06 19.94936 110.45563 54 ft 3 kts 251°
2026-04-25 03:07 19.94941 110.45583 54 ft 3 kts 265°
2026-04-25 03:07 19.94942 110.45603 63 ft 3 kts 275°
2026-04-25 03:07 19.94940 110.45625 54 ft 3 kts 278°
2026-04-25 03:07 19.94937 110.45641 54 ft 1 kts 277°
2026-04-25 03:08 19.94937 110.45646 54 ft 0 kts 277°
2026-04-25 03:11 19.94937 110.45645 54 ft 1 kts 277°
2026-04-25 03:11 19.94950 110.45624 54 ft 5 kts 316°
2026-04-25 03:12 19.94987 110.45598 54 ft 8 kts 324°
2026-04-25 03:12 19.95025 110.45562 55 ft 8 kts 315°
2026-04-25 03:12 19.95071 110.45533 53 ft 9 kts 347°
2026-04-25 03:12 19.95140 110.45533 54 ft 9 kts
2026-04-25 03:13 19.95199 110.45509 57 ft 9 kts 304°
2026-04-25 03:13 19.95203 110.45436 61 ft 12 kts 269°
2026-04-25 03:13 19.95203 110.45340 61 ft 14 kts 270°
2026-04-25 03:13 19.95203 110.45235 60 ft 15 kts 269°
2026-04-25 03:14 19.95202 110.45125 59 ft 16 kts 269°
2026-04-25 03:14 19.95202 110.45029 59 ft 11 kts 270°
2026-04-25 03:14 19.95241 110.44986 50 ft 9 kts 352°
2026-04-25 03:14 19.95314 110.44985 50 ft 10 kts
2026-04-25 03:15 19.95362 110.44992 55 ft 5 kts 30°
2026-04-25 03:15 19.95372 110.45023 55 ft 5 kts 90°
2026-04-25 03:15 19.95372 110.45037 55 ft 0 kts 89°
2026-04-25 03:17 19.95374 110.45200 59 ft 58 kts 89°
2026-04-25 03:17 19.95376 110.45900 64 ft 128 kts 90°
2026-04-25 03:17 19.95385 110.47055 210 ft 175 kts 89°
2026-04-25 03:17 19.95397 110.48353 1099 ft 172 kts 88°
2026-04-25 03:18 19.95530 110.49643 1816 ft 191 kts 69°
2026-04-25 03:18 19.96471 110.50680 2343 ft 205 kts 28°
2026-04-25 03:18 19.97836 110.51234 2827 ft 215 kts 20°
2026-04-25 03:18 19.99243 110.51846 3310 ft 221 kts 25°
2026-04-25 03:19 20.00649 110.52619 3660 ft 235 kts 30°
2026-04-25 03:19 20.02066 110.53541 4141 ft 243 kts 32°
2026-04-25 03:19 20.03486 110.54546 4789 ft 246 kts 34°
2026-04-25 03:19 20.04903 110.55590 5413 ft 250 kts 34°
2026-04-25 03:20 20.06335 110.56669 6035 ft 253 kts 34°
2026-04-25 03:20 20.07775 110.57763 6639 ft 256 kts 34°
2026-04-25 03:20 20.09252 110.58829 7254 ft 259 kts 28°
2026-04-25 03:20 20.10967 110.59392 7828 ft 261 kts
2026-04-25 03:21 20.12807 110.59188 8172 ft 273 kts 347°
2026-04-25 03:21 20.14675 110.58706 8668 ft 279 kts 345°
2026-04-25 03:21 20.16576 110.58189 9258 ft 282 kts 345°
2026-04-25 03:21 20.18485 110.57680 9896 ft 284 kts 345°
2026-04-25 03:22 20.20432 110.57172 10312 ft 293 kts 345°
2026-04-25 03:22 20.22455 110.56648 10567 ft 307 kts 345°
2026-04-25 03:22 20.24586 110.56103 10822 ft 320 kts 345°
2026-04-25 03:22 20.26795 110.55537 11090 ft 332 kts 345°
2026-04-25 03:23 20.29053 110.54955 11495 ft 337 kts 345°
2026-04-25 03:23 20.31350 110.54371 11958 ft 341 kts 345°
2026-04-25 03:23 20.33668 110.53779 12433 ft 344 kts 345°
2026-04-25 03:23 20.36000 110.53185 12909 ft 346 kts 345°
2026-04-25 03:24 20.38357 110.52582 13378 ft 349 kts 345°
2026-04-25 03:24 20.40718 110.51981 13859 ft 351 kts 346°
2026-04-25 03:24 20.43108 110.51388 14258 ft 354 kts 346°
2026-04-25 03:24 20.45551 110.51001 14661 ft 357 kts 355°
2026-04-25 03:25 20.48045 110.51111 15073 ft 362 kts
2026-04-25 03:25 20.50489 110.51789 15515 ft 366 kts 19°
2026-04-25 03:25 20.52770 110.53019 15924 ft 370 kts 31°
2026-04-25 03:25 20.54759 110.54736 16327 ft 375 kts 42°
2026-04-25 03:26 20.56575 110.56747 16730 ft 378 kts 45°
2026-04-25 03:26 20.58314 110.58867 17133 ft 381 kts 47°
2026-04-25 03:26 20.60023 110.61049 17532 ft 384 kts 48°
2026-04-25 03:26 20.61721 110.63248 17933 ft 387 kts 49°
2026-04-25 03:27 20.63460 110.65501 18324 ft 389 kts 48°
2026-04-25 03:27 20.65201 110.67734 18655 ft 391 kts 48°
2026-04-25 03:27 20.66932 110.69929 18968 ft 394 kts 47°
2026-04-25 03:27 20.68719 110.72172 19286 ft 397 kts 47°
2026-04-25 03:28 20.70547 110.74455 19607 ft 400 kts 47°
2026-04-25 03:28 20.72335 110.76682 19927 ft 402 kts 47°
2026-04-25 03:28 20.74162 110.78957 20253 ft 405 kts 47°
2026-04-25 03:28 20.76000 110.81248 20571 ft 408 kts 47°
2026-04-25 03:29 20.77846 110.83551 20882 ft 410 kts 47°
2026-04-25 03:29 20.79706 110.85874 21195 ft 413 kts 47°
2026-04-25 03:29 20.81581 110.88218 21508 ft 416 kts 47°
2026-04-25 03:29 20.83467 110.90577 21824 ft 418 kts 47°
2026-04-25 03:30 20.85357 110.92943 22118 ft 421 kts 47°
2026-04-25 03:30 20.87261 110.95326 22431 ft 423 kts 47°
2026-04-25 03:30 20.89183 110.97734 22718 ft 426 kts 47°
2026-04-25 03:30 20.91112 111.00151 23008 ft 429 kts 47°
2026-04-25 03:31 20.93058 111.02588 23299 ft 432 kts 47°
2026-04-25 03:31 20.95013 111.05041 23576 ft 434 kts 47°
2026-04-25 03:31 20.96975 111.07504 23822 ft 437 kts 47°
2026-04-25 03:31 20.98959 111.09981 24065 ft 440 kts 46°
2026-04-25 03:32 21.00958 111.12464 24299 ft 442 kts 46°
2026-04-25 03:32 21.02981 111.14974 24535 ft 445 kts 46°
2026-04-25 03:32 21.04998 111.17479 24784 ft 447 kts 46°
2026-04-25 03:32 21.07034 111.20011 25029 ft 449 kts 46°
2026-04-25 03:33 21.09081 111.22560 25266 ft 452 kts 46°
2026-04-25 03:33 21.11134 111.25120 25497 ft 454 kts 46°
2026-04-25 03:33 21.13197 111.27694 25746 ft 456 kts 46°
2026-04-25 03:33 21.15264 111.30275 25979 ft 459 kts 46°
2026-04-25 03:34 21.17352 111.32883 26229 ft 461 kts 46°
2026-04-25 03:34 21.19438 111.35490 26457 ft 464 kts 46°
2026-04-25 03:34 21.21544 111.38123 26713 ft 466 kts 45°
2026-04-25 03:34 21.23659 111.40769 26972 ft 469 kts 45°
2026-04-25 03:35 21.25783 111.43427 27239 ft 471 kts 45°
2026-04-25 03:35 21.27919 111.46101 27481 ft 473 kts 45°
2026-04-25 03:35 21.30045 111.48764 27744 ft 476 kts 45°
2026-04-25 03:35 21.32233 111.51507 28019 ft 478 kts 45°
2026-04-25 03:36 21.34396 111.54219 28298 ft 481 kts 45°
2026-04-25 03:36 21.36572 111.56948 28555 ft 484 kts 45°
2026-04-25 03:36 21.38767 111.59704 28838 ft 486 kts 45°
2026-04-25 03:36 21.40973 111.62474 29125 ft 489 kts 45°
2026-04-25 03:37 21.42432 111.64308 29322 ft 490 kts 45°
2026-04-25 03:37 21.45410 111.68051 29691 ft 494 kts 45°
2026-04-25 03:37 21.46885 111.69906 29910 ft 496 kts 45°
2026-04-25 03:37 21.49863 111.73652 30270 ft 499 kts 45°
2026-04-25 03:38 21.52114 111.76487 30526 ft 502 kts 45°
2026-04-25 03:38 21.54385 111.79351 30790 ft 504 kts 45°
2026-04-25 03:38 21.56492 111.82398 31044 ft 512 kts 53°
2026-04-25 03:38 21.57692 111.84635 31221 ft 517 kts 59°
2026-04-25 03:39 21.59768 111.89272 31580 ft 521 kts 62°
2026-04-25 03:39 21.60770 111.91679 31715 ft 524 kts 63°
2026-04-25 03:39 21.62206 111.95246 31959 ft 527 kts 63°
2026-04-25 03:39 21.63638 111.98881 32220 ft 530 kts 64°
2026-04-25 03:40 21.65071 112.02542 32448 ft 533 kts 64°
2026-04-25 03:40 21.66528 112.06275 32698 ft 536 kts 64°
2026-04-25 03:40 21.67961 112.09924 32948 ft 539 kts 63°
2026-04-25 03:40 21.69449 112.13691 33169 ft 541 kts 63°
2026-04-25 03:41 21.70909 112.17368 33390 ft 544 kts 63°
2026-04-25 03:41 21.72409 112.21132 33624 ft 547 kts 63°
2026-04-25 03:41 21.73909 112.24893 33851 ft 549 kts 63°
2026-04-25 03:41 21.75436 112.28722 34084 ft 552 kts 63°
2026-04-25 03:42 21.76937 112.32485 34294 ft 555 kts 63°
2026-04-25 03:42 21.78457 112.36304 34485 ft 557 kts 63°
2026-04-25 03:42 21.80000 112.40183 34708 ft 559 kts 63°
2026-04-25 03:42 21.81508 112.43984 34991 ft 559 kts 63°
2026-04-25 03:43 21.83031 112.47825 35274 ft 560 kts 63°
2026-04-25 03:43 21.84560 112.51688 35540 ft 560 kts 63°
2026-04-25 03:43 21.86089 112.55550 35806 ft 561 kts 63°
2026-04-25 03:43 21.87630 112.59410 36103 ft 561 kts 63°
2026-04-25 03:44 21.89183 112.63256 36383 ft 561 kts 63°
2026-04-25 03:44 21.90744 112.67104 36645 ft 562 kts 63°
2026-04-25 03:44 21.92311 112.70970 36864 ft 563 kts 63°
2026-04-25 03:44 21.93879 112.74843 37086 ft 564 kts 63°
2026-04-25 03:45 21.95453 112.78711 37363 ft 565 kts 62°
2026-04-25 03:45 21.97039 112.82599 37646 ft 565 kts 62°
2026-04-25 03:45 21.98601 112.86476 37910 ft 566 kts 63°
2026-04-25 03:45 22.00144 112.90394 38191 ft 567 kts 63°
2026-04-25 03:46 22.01661 112.94297 38479 ft 567 kts 63°
2026-04-25 03:46 22.03179 112.98225 38744 ft 568 kts 63°
2026-04-25 03:46 22.04703 113.02161 38980 ft 568 kts 63°
2026-04-25 03:46 22.06270 113.06073 39249 ft 566 kts 63°
2026-04-25 03:47 22.07853 113.09939 39536 ft 565 kts 62°
2026-04-25 03:47 22.09458 113.13815 39807 ft 564 kts 62°
2026-04-25 03:47 22.11060 113.17664 40070 ft 563 kts 62°
2026-04-25 03:47 22.12663 113.21508 40380 ft 561 kts 62°
2026-04-25 03:48 22.14253 113.25331 40572 ft 561 kts 62°
2026-04-25 03:48 22.15797 113.29211 40764 ft 563 kts 63°
2026-04-25 03:48 22.17286 113.33128 40990 ft 563 kts 64°
2026-04-25 03:48 22.18735 113.37040 41168 ft 564 kts 64°
2026-04-25 03:49 22.21820 113.44877 41180 ft 567 kts 57°
2026-04-25 03:49 22.23943 113.48409 41179 ft 557 kts 45°
2026-04-25 03:49 22.26394 113.51619 41181 ft 554 kts 43°
2026-04-25 03:50 22.31552 113.57774 41180 ft 551 kts 40°
2026-04-25 03:50 22.36821 113.63807 41177 ft 551 kts 40°
2026-04-25 03:51 22.42074 113.69838 41182 ft 552 kts 40°
2026-04-25 03:51 22.47274 113.75880 41198 ft 553 kts 43°
2026-04-25 03:52 22.52433 113.82125 41201 ft 554 kts 43°
2026-04-25 03:52 22.57548 113.88254 41205 ft 554 kts 43°
2026-04-25 03:53 22.61292 113.92719 41204 ft 552 kts 40°
2026-04-25 03:53 22.63464 113.95182 41201 ft 551 kts 39°
2026-04-25 03:54 22.68532 114.01467 41196 ft 563 kts 51°
2026-04-25 03:54 22.70410 114.05209 41193 ft 570 kts 64°
2026-04-25 03:54 22.71544 114.09099 41191 ft 575 kts 77°
2026-04-25 03:55 22.72746 114.17676 41185 ft 577 kts 83°
2026-04-25 03:55 22.73560 114.26315 41186 ft 577 kts 84°
2026-04-25 03:56 22.74358 114.34983 41182 ft 577 kts 83°
2026-04-25 03:56 22.75211 114.43611 41183 ft 577 kts 83°
2026-04-25 03:57 22.76098 114.52282 41183 ft 578 kts 83°
2026-04-25 03:57 22.76988 114.60918 41181 ft 578 kts 83°
2026-04-25 03:58 22.77874 114.69575 41180 ft 578 kts 83°
2026-04-25 03:58 22.78758 114.78232 41177 ft 578 kts 83°
2026-04-25 03:59 22.79676 114.86879 41179 ft 578 kts 83°
2026-04-25 03:59 22.80597 114.95473 41178 ft 578 kts 83°
2026-04-25 04:00 22.81514 115.04122 41179 ft 578 kts 83°
2026-04-25 04:00 22.82426 115.12830 41174 ft 578 kts 83°
2026-04-25 04:01 22.83320 115.21426 41174 ft 578 kts 83°
2026-04-25 04:01 22.84218 115.30078 41173 ft 578 kts 83°
2026-04-25 04:02 22.85115 115.38761 41176 ft 579 kts 83°
2026-04-25 04:02 22.86003 115.47423 41175 ft 579 kts 83°
2026-04-25 04:03 22.86891 115.56122 41175 ft 579 kts 83°
2026-04-25 04:03 22.87771 115.64784 41174 ft 579 kts 84°
2026-04-25 04:04 22.88647 115.73469 41174 ft 578 kts 84°
2026-04-25 04:04 22.89515 115.82127 41173 ft 578 kts 84°
2026-04-25 04:05 22.90385 115.90800 41175 ft 579 kts 84°
2026-04-25 04:05 22.91287 115.99444 40721 ft 572 kts 83°
2026-04-25 04:06 22.91739 116.03719 40143 ft 571 kts 84°
2026-04-25 04:06 22.92190 116.07993 39527 ft 572 kts 84°
2026-04-25 04:06 22.92635 116.12275 38899 ft 573 kts 84°
2026-04-25 04:06 22.93078 116.16578 38187 ft 574 kts 84°
2026-04-25 04:07 22.93519 116.20896 37412 ft 576 kts 84°
2026-04-25 04:07 22.93955 116.25170 36569 ft 570 kts 84°
2026-04-25 04:07 22.94448 116.29439 35684 ft 571 kts 80°
2026-04-25 04:07 22.95527 116.33549 34581 ft 565 kts 66°
2026-04-25 04:08 22.97379 116.37269 33368 ft 552 kts 51°
2026-04-25 04:08 22.99881 116.40291 32521 ft 528 kts 39°
2026-04-25 04:08 23.02619 116.42822 31607 ft 511 kts 34°
2026-04-25 04:08 23.05414 116.45128 30770 ft 503 kts 32°
2026-04-25 04:09 23.08250 116.47342 30407 ft 496 kts 31°
2026-04-25 04:09 23.11028 116.49492 30052 ft 490 kts 31°
2026-04-25 04:09 23.13796 116.51658 29575 ft 486 kts 32°
2026-04-25 04:09 23.16506 116.53818 29098 ft 482 kts 32°
2026-04-25 04:10 23.19173 116.55980 28632 ft 477 kts 33°
2026-04-25 04:10 23.21780 116.58122 28192 ft 473 kts 33°
2026-04-25 04:10 23.24391 116.60284 27731 ft 469 kts 33°
2026-04-25 04:10 23.26959 116.62422 27275 ft 465 kts 33°
2026-04-25 04:11 23.32046 116.66683 26393 ft 457 kts 33°
2026-04-25 04:11 23.34553 116.68785 25951 ft 453 kts 33°
2026-04-25 04:11 23.37047 116.70871 25503 ft 450 kts 33°
2026-04-25 04:12 23.39516 116.72932 25078 ft 446 kts 33°
2026-04-25 04:12 23.41974 116.74979 24625 ft 442 kts 33°
2026-04-25 04:12 23.44316 116.77143 24176 ft 442 kts 39°
2026-04-25 04:12 23.46549 116.79493 23726 ft 440 kts 41°
2026-04-25 04:13 23.48698 116.81854 23238 ft 437 kts 42°
2026-04-25 04:13 23.50799 116.84221 22723 ft 434 kts 42°
2026-04-25 04:13 23.52846 116.86555 22231 ft 430 kts 43°
2026-04-25 04:13 23.54897 116.88906 21751 ft 426 kts 43°
2026-04-25 04:14 23.56932 116.91239 21266 ft 423 kts 43°
2026-04-25 04:14 23.58949 116.93555 20800 ft 419 kts 43°
2026-04-25 04:14 23.60953 116.95858 20338 ft 416 kts 43°
2026-04-25 04:14 23.62939 116.98138 19879 ft 412 kts 43°
2026-04-25 04:15 23.64906 117.00390 19424 ft 409 kts 43°
2026-04-25 04:15 23.66864 117.02626 18969 ft 406 kts 43°
2026-04-25 04:15 23.68809 117.04843 18525 ft 403 kts 42°
2026-04-25 04:15 23.70743 117.07045 18027 ft 400 kts 42°
2026-04-25 04:16 23.72669 117.09235 17517 ft 397 kts 42°
2026-04-25 04:16 23.74579 117.11394 17043 ft 394 kts 42°
2026-04-25 04:16 23.76473 117.13532 16562 ft 391 kts 42°
2026-04-25 04:16 23.78403 117.15592 16080 ft 386 kts 39°
2026-04-25 04:17 23.80402 117.17530 15629 ft 382 kts 38°
2026-04-25 04:17 23.82394 117.19428 15195 ft 379 kts 38°
2026-04-25 04:17 23.84374 117.21315 14752 ft 375 kts 38°
2026-04-25 04:17 23.86319 117.23183 14304 ft 372 kts 38°
2026-04-25 04:18 23.88240 117.25044 13846 ft 369 kts 38°
2026-04-25 04:18 23.90158 117.26907 13349 ft 366 kts 39°
2026-04-25 04:18 23.92046 117.28747 12871 ft 363 kts 39°
2026-04-25 04:18 23.93913 117.30579 12413 ft 360 kts 40°
2026-04-25 04:19 23.95768 117.32409 11917 ft 357 kts 39°
2026-04-25 04:19 23.97610 117.34213 11425 ft 354 kts 39°
2026-04-25 04:19 23.99429 117.35994 11007 ft 349 kts 39°
2026-04-25 04:19 24.01203 117.37735 10798 ft 338 kts 39°
2026-04-25 04:20 24.02923 117.39423 10619 ft 326 kts 39°
2026-04-25 04:20 24.04582 117.41053 10401 ft 312 kts 39°
2026-04-25 04:20 24.06173 117.42613 9709 ft 306 kts 39°
2026-04-25 04:20 24.07764 117.44161 9248 ft 306 kts 39°
2026-04-25 04:21 24.09340 117.45704 8914 ft 302 kts 39°
2026-04-25 04:21 24.10903 117.47227 8484 ft 300 kts 39°
2026-04-25 04:21 24.12452 117.48739 8159 ft 295 kts 39°
2026-04-25 04:21 24.13936 117.50245 7744 ft 296 kts 43°
2026-04-25 04:22 24.15362 117.51894 7386 ft 294 kts 45°
2026-04-25 04:22 24.16744 117.53548 7010 ft 292 kts 46°
2026-04-25 04:22 24.18110 117.55189 6656 ft 291 kts 46°
2026-04-25 04:22 24.19454 117.56800 6329 ft 289 kts 46°
2026-04-25 04:23 24.20795 117.58415 6008 ft 285 kts 46°
2026-04-25 04:23 24.22124 117.60007 5701 ft 282 kts 46°
2026-04-25 04:23 24.23440 117.61580 5377 ft 279 kts 46°
2026-04-25 04:23 24.24748 117.63147 5025 ft 277 kts 46°
2026-04-25 04:24 24.26038 117.64689 4703 ft 272 kts 47°
2026-04-25 04:24 24.27309 117.66211 4346 ft 269 kts 47°
2026-04-25 04:24 24.28557 117.67707 3996 ft 265 kts 47°
2026-04-25 04:24 24.29793 117.69189 3748 ft 260 kts 47°
2026-04-25 04:25 24.31012 117.70655 3630 ft 261 kts 47°
2026-04-25 04:25 24.31842 117.71652 3548 ft 260 kts 48°
2026-04-25 04:25 24.33452 117.73590 3392 ft 259 kts 47°
2026-04-25 04:25 24.34273 117.74576 3294 ft 258 kts 48°
2026-04-25 04:26 24.35844 117.76469 3151 ft 247 kts 48°
2026-04-25 04:26 24.36616 117.77399 3067 ft 239 kts 48°
2026-04-25 04:26 24.37706 117.78722 2956 ft 228 kts 49°
2026-04-25 04:26 24.38727 117.79965 2953 ft 215 kts 48°
2026-04-25 04:27 24.39599 117.81291 2956 ft 214 kts 64°
2026-04-25 04:27 24.39967 117.82859 2966 ft 214 kts 82°
2026-04-25 04:27 24.40100 117.84484 2964 ft 214 kts 85°
2026-04-25 04:27 24.40197 117.86083 2966 ft 214 kts 85°
2026-04-25 04:28 24.40298 117.87733 2969 ft 214 kts 85°
2026-04-25 04:28 24.40403 117.89324 2953 ft 203 kts 85°
2026-04-25 04:28 24.40503 117.90792 2951 ft 190 kts 85°
2026-04-25 04:28 24.40645 117.92203 2952 ft 183 kts 80°
2026-04-25 04:29 24.40970 117.93531 2969 ft 180 kts 69°
2026-04-25 04:29 24.41538 117.94771 2960 ft 182 kts 57°
2026-04-25 04:29 24.42320 117.95852 2875 ft 181 kts 50°
2026-04-25 04:29 24.43124 117.96916 2769 ft 180 kts 51°
2026-04-25 04:30 24.43897 117.97988 2647 ft 176 kts 52°
2026-04-25 04:30 24.44626 117.99014 2510 ft 166 kts 52°
2026-04-25 04:30 24.45314 117.99997 2385 ft 157 kts 53°
2026-04-25 04:30 24.45958 118.00912 2296 ft 147 kts 52°
2026-04-25 04:31 24.46586 118.01799 2269 ft 146 kts 52°
2026-04-25 04:31 24.47196 118.02649 2111 ft 138 kts 52°
2026-04-25 04:31 24.47770 118.03456 1915 ft 130 kts 51°
2026-04-25 04:31 24.48321 118.04224 1772 ft 128 kts 51°
2026-04-25 04:32 24.48870 118.04997 1600 ft 127 kts 52°
2026-04-25 04:32 24.49414 118.05758 1444 ft 128 kts 52°
2026-04-25 04:32 24.49959 118.06521 1258 ft 127 kts 52°
2026-04-25 04:32 24.50506 118.07290 1087 ft 127 kts 52°
2026-04-25 04:33 24.51053 118.08057 915 ft 128 kts 51°
2026-04-25 04:33 24.51600 118.08826 734 ft 128 kts 51°
2026-04-25 04:33 24.52151 118.09597 586 ft 127 kts 52°
2026-04-25 04:33 24.52706 118.10364 363 ft 128 kts 50°
2026-04-25 04:34 24.53255 118.11144 174 ft 130 kts 54°
2026-04-25 04:34 24.53800 118.11933 49 ft 123 kts 49°
2026-04-25 04:34 24.54262 118.12551 51 ft 87 kts 51°
2026-04-25 04:34 24.54562 118.12972 49 ft 50 kts 52°
2026-04-25 04:35 24.54622 118.13055 50 ft 0 kts 52°
2026-04-25 04:35 24.54634 118.13072 46 ft 7 kts 52°
2026-04-25 04:35 24.54669 118.13128 50 ft 10 kts 64°
2026-04-25 04:35 24.54694 118.13211 51 ft 12 kts 75°
2026-04-25 04:36 24.54709 118.13294 52 ft 7 kts 80°
2026-04-25 04:36 24.54719 118.13359 52 ft 10 kts 81°
2026-04-25 04:36 24.54732 118.13447 51 ft 12 kts 79°
2026-04-25 04:36 24.54751 118.13519 51 ft 8 kts 69°
2026-04-25 04:37 24.54788 118.13582 51 ft 11 kts 53°
2026-04-25 04:37 24.54837 118.13651 51 ft 8 kts 52°
2026-04-25 04:37 24.54842 118.13659 51 ft 0 kts 52°
2026-04-25 04:37 24.54844 118.13662 51 ft 2 kts 52°
2026-04-25 04:38 24.54865 118.13692 51 ft 7 kts 56°
2026-04-25 04:38 24.54864 118.13744 51 ft 6 kts 127°
2026-04-25 04:38 24.54823 118.13778 50 ft 6 kts 142°
2026-04-25 04:38 24.54789 118.13814 51 ft 7 kts 117°
2026-04-25 04:39 24.54800 118.13859 51 ft 6 kts 71°
2026-04-25 04:39 24.54802 118.13868 51 ft 0 kts 75°
2026-04-25 04:39 24.54805 118.13883 51 ft 2 kts 76°
2026-04-25 04:39 24.54806 118.13888 51 ft 0 kts 76°